Dewpoint
70 71 72 71 73 73 73 73 73 74 75 75 75 74 74 75 75 75 75 74 74 75 74 75 75 76 73 71 72 71 70 70 69 70 71 72 75 75 74 74 73 74 70
71 71 71 71 72 71 73 73 73 74 74 74 74 74 74 74 75 75 74 72 73 74 73 75 75 73 75 77 74 75 73 75 72 72 73 71 74 75 75 76 73 71 72
71 70 69 69 70 70 71 73 74 74 74 73 74 74 74 74 74 74 74 72 73 73 74 74 74 75 75 75 77 72 70 75 74 73 71 71 71 73 74 74 74 75 70
69 68 69 69 69 69 73 74 74 75 74 74 74 74 74 74 74 74 74 75 75 74 74 75 75 75 75 76 76 77 77 75 76 74 71 72 70 73 73 72 69 67 69
70 69 70 71 71 72 73 73 74 75 74 75 75 75 75 74 71 74 75 75 75 75 75 75 74 74 71 72 77 75 77 75 73 74 71 71 68 68 71 69 71 70 71
70 69 71 72 72 73 73 74 75 75 75 76 75 74 75 72 67 67 72 73 75 75 73 74 73 71 71 68 68 68 72 75 74 71 70 71 72 72 70 68 68 69 67
69 70 69 72 71 71 73 73 74 75 75 75 76 75 73 75 64 64 66 74 75 74 73 73 70 67 71 73 69 67 67 66 67 73 74 73 73 74 74 73 73 71 70
69 70 71 71 71 71 71 73 74 73 74 74 74 75 76 73 65 63 64 73 73 73 72 72 74 73 73 72 71 70 70 70 71 73 74 73 74 76 77 74 74 73 72
69 71 72 73 71 71 71 72 73 73 72 74 73 74 74 74 63 62 64 72 72 73 73 74 73 71 64 61 69 69 70 69 66 65 64 63 62 63 66 70 70 70 68
71 73 73 73 72 72 72 73 74 74 73 73 72 73 70 73 59 59 63 73 73 73 74 73 65 67 59 58 69 68 68 67 68 68 68 67 68 69 65 71 69 69 69
67 68 69 69 70 72 70 71 71 70 70 71 70 72 72 71 70 57 57 71 71 71 70 69 69 58 56 55 56 67 66 66 66 67 67 67 68 71 72 72 70 69 69
66 66 66 67 68 68 69 68 69 68 66 68 67 67 68 69 60 56 56 57 62 67 68 68 68 58 54 54 58 57 55 57 66 66 67 67 68 69 69 70 70 69 70
64 65 63 66 66 66 68 68 68 67 66 66 65 66 67 67 68 57 55 55 57 63 68 63 57 55 53 58 55 54 57 66 67 66 66 66 67 68 68 69 69 69 69
64 64 66 66 63 64 66 69 67 67 66 66 66 67 67 66 67 67 65 63 58 60 61 64 60 57 55 59 63 62 63 62 64 64 63 64 64 65 66 67 68 69 68
64 65 65 64 65 64 63 64 66 63 62 66 67 67 65 65 64 61 62 67 65 57 60 64 66 65 62 62 61 61 62 62 61 61 62 62 62 62 62 64 65 67 67
61 61 61 62 63 63 62 60 54 54 49 49 51 59 60 53 46 46 46 46 46 48 61 64 62 62 62 61 60 59 60 59 60 61 61 60 60 61 60 61 63 64 65
55 56 58 56 59 59 59 57 60 55 48 46 44 45 46 50 47 45 45 44 45 51 62 62 61 60 59 59 59 59 59 59 59 59 59 59 59 60 60 60 60 61 61
48 49 49 52 55 57 56 54 52 53 55 57 50 49 43 44 43 43 44 50 58 57 60 59 58 58 57 56 56 57 58 58 54 53 53 52 55 57 58 59 59 59 60
47 46 46 46 46 47 49 49 51 53 52 51 54 53 49 43 43 42 43 59 59 59 59 58 58 56 55 55 56 57 58 53 47 46 44 43 45 50 55 56 56 51 53
46 48 47 46 45 45 45 45 45 47 47 47 46 47 51 53 58 58 56 56 55 55 56 58 57 56 54 54 54 54 52 44 44 41 41 40 40 46 49 50 48 46 48
40 42 46 43 44 44 44 45 46 46 45 46 45 45 42 47 50 53 57 57 55 54 54 56 56 54 54 54 53 51 47 42 41 42 40 40 41 42 47 46 44 42 41
39 39 39 40 42 42 42 43 43 44 44 44 45 45 42 47 48 50 53 55 56 56 55 56 57 55 51 50 51 48 46 42 41 41 41 40 39 41 42 41 40 40 39
38 38 38 39 40 42 41 42 42 43 43 43 44 43 43 44 45 45 46 49 52 55 55 56 55 56 55 53 52 49 42 42 42 42 41 39 39 40 41 39 38 37 36
38 38 38 38 37 38 38 39 40 40 42 42 42 42 43 43 43 44 44 45 45 46 49 51 52 52 56 56 53 51 48 45 43 41 42 40 38 36 38 40 37 36 34
39 40 39 39 39 39 39 39 39 38 38 39 38 39 41 42 42 42 42 42 44 44 45 46 48 52 56 58 57 54 49 37 45 38 41 41 40 41 39 39 39 37 37
39 39 39 40 39 40 39 39 39 39 39 38 39 40 40 40 39 39 40 40 40 40 42 42 43 47 49 51 55 52 41 37 44 35 42 41 39 39 38 40 41 38 37
Lifted_Index
-3 -3 -3 -3 -3 -4 -4 -5 -5 -5 -6 -6 -6 -6 -6 -6 -6 -5 -5 -5 -5 -5 -5 -5 -5 -5 -5 -5 -4 -4 -4 -4 -4 -5 -6 -6 -6 -6 -6 -6 -6 -6 -5
-3 -3 -3 -3 -3 -4 -4 -5 -5 -6 -6 -6 -6 -6 -6 -6 -6 -6 -5 -4 -4 -5 -5 -5 -5 -5 -5 -5 -5 -4 -4 -4 -4 -5 -5 -6 -6 -6 -6 -6 -6 -5 -5
-3 -3 -3 -3 -3 -4 -4 -5 -5 -6 -6 -6 -6 -6 -6 -6 -6 -6 -5 -5 -5 -5 -5 -5 -5 -5 -5 -5 -5 -4 -4 -4 -4 -4 -5 -5 -5 -6 -6 -6 -6 -5 -5
-3 -3 -3 -3 -3 -4 -5 -5 -6 -6 -6 -6 -6 -6 -6 -6 -6 -6 -6 -6 -5 -5 -6 -6 -6 -6 -5 -5 -5 -5 -4 -4 -4 -4 -4 -4 -5 -5 -5 -5 -5 -5 -5
-3 -3 -3 -3 -4 -4 -5 -5 -6 -6 -6 -6 -6 -6 -6 -6 -6 -5 -6 -6 -6 -6 -6 -5 -5 -5 -5 -5 -5 -5 -4 -4 -4 -4 -4 -4 -4 -5 -5 -4 -4 -4 -4
-3 -3 -3 -4 -4 -4 -5 -5 -6 -6 -6 -6 -6 -6 -6 -6 -5 -5 -5 -5 -5 -5 -5 -5 -5 -5 -5 -5 -4 -4 -4 -4 -4 -4 -3 -4 -4 -5 -4 -4 -5 -5 -5
-3 -3 -3 -4 -4 -4 -4 -5 -5 -6 -6 -6 -6 -6 -6 -5 -4 -4 -4 -4 -5 -5 -5 -5 -5 -4 -4 -4 -4 -3 -3 -3 -3 -3 -3 -3 -4 -4 -4 -5 -5 -5 -5
-5 -4 -4 -4 -4 -4 -4 -5 -5 -5 -6 -6 -6 -5 -5 -5 -4 -4 -4 -4 -4 -5 -5 -5 -5 -4 -4 -3 -2 -2 -2 -2 -2 -2 -2 -2 -3 -3 -3 -4 -4 -4 -4
-5 -5 -4 -4 -4 -4 -4 -5 -5 -5 -5 -5 -5 -5 -5 -5 -4 -4 -4 -4 -5 -5 -5 -5 -4 -3 -2 -1 -1 -1 -1 -1 -1 -1 -1 -1 -1 -1 -1 -2 -3 -3 -4
-4 -5 -4 -4 -4 -4 -4 -4 -4 -4 -4 -4 -4 -4 -5 -5 -4 -4 -4 -4 -5 -5 -5 -4 -4 -2 -1 -1 -0 -0 -0 -0 0 0 1 1 1 0 -0 -0 -1 -2 -3
-4 -4 -4 -4 -3 -3 -3 -3 -3 -2 -2 -2 -2 -3 -3 -3 -3 -2 -2 -3 -3 -3 -3 -3 -2 -2 -1 -0 0 0 -0 0 1 1 1 1 1 1 1 0 -1 -2 -2
-3 -3 -2 -2 -2 -1 -2 -1 -1 -1 -1 -0 -0 -1 -1 -1 -1 -0 -0 -1 -1 -1 -1 -1 -1 -0 0 1 0 -0 -0 0 0 1 1 1 1 1 1 1 -0 -1 -2
-1 -1 -1 -1 1 1 0 0 0 0 0 1 1 0 -0 -0 -0 0 1 1 0 -0 0 1 1 1 2 1 0 -0 -0 -0 0 1 1 1 1 2 2 1 1 -0 -1
-0 -0 -1 0 2 2 1 0 0 0 0 0 0 -0 -1 -1 -1 -0 1 1 1 1 1 1 2 2 2 1 -0 -1 -0 0 1 1 2 2 2 2 2 2 1 1 -0
-1 -1 -1 -0 1 1 1 0 -0 -0 -0 -0 -0 -1 -2 -2 -1 -0 1 1 1 1 1 2 2 2 2 1 0 0 1 1 2 3 3 3 4 4 3 2 2 1 1
-1 -1 -0 -0 0 1 0 -0 -0 0 0 -0 -1 -1 -2 -2 -1 0 1 1 1 1 2 2 3 3 3 3 2 3 3 4 4 5 5 5 5 5 4 4 3 2 2
-1 -0 0 0 1 1 0 0 0 1 1 1 0 -0 -1 -0 0 1 2 3 3 3 3 3 4 4 5 5 5 5 5 6 6 7 7 7 7 6 6 5 4 4 3
2 2 2 2 2 2 1 1 1 1 2 1 1 1 1 1 1 2 3 3 3 3 3 3 4 5 6 6 6 6 7 7 8 8 8 8 8 8 7 6 6 5 5
4 4 4 4 4 4 4 3 3 3 3 2 2 2 2 2 2 2 2 3 3 3 2 2 3 5 6 6 7 7 7 9 10 10 10 10 10 10 9 8 7 7 7
6 7 7 7 6 6 6 6 5 5 5 5 4 3 3 2 2 2 2 2 2 2 2 2 2 4 5 6 6 7 8 10 11 11 12 12 12 11 10 10 10 10 10
9 9 9 8 8 8 8 8 8 7 7 7 6 5 4 4 3 3 2 2 2 2 2 2 2 3 4 5 6 7 9 10 11 12 12 12 13 12 12 12 12 12 12
10 10 10 10 9 9 9 9 9 9 8 8 8 7 6 6 5 4 3 3 2 2 2 2 2 2 4 5 6 7 9 10 10 11 11 12 12 12 12 12 12 12 13
10 10 10 10 10 10 10 10 10 10 9 9 8 8 8 7 7 6 5 4 3 3 2 2 2 1 2 3 5 6 7 8 9 9 9 10 10 11 11 11 11 12 12
9 9 10 10 10 10 10 10 10 10 9 9 9 8 8 8 7 7 6 5 5 4 3 3 2 1 1 1 2 3 5 6 7 7 8 8 8 9 9 10 10 11 11
9 9 9 9 9 9 9 9 9 9 9 8 8 8 8 7 7 7 7 6 5 5 5 4 3 2 1 1 1 2 3 4 5 6 6 6 7 8 8 9 9 10 10
8 8 8 8 8 8 8 8 8 8 8 8 8 8 7 7 7 7 7 6 6 5 5 5 5 4 3 2 1 1 2 3 4 4 5 6 6 7 7 8 8 9 9